timestamp,surface_pressure_avg,surface_temp_avg,battery_voltage,lat,long
2022-01-25 00:09:00+00:00,245.6164,2.0,12.57,47.84626,-54.09684
2022-01-25 00:19:00+00:00,257.7831,2.0,12.57,47.84626,-54.09684
2022-01-25 00:29:00+00:00,263.9914,2.02,12.57,47.84626,-54.09684
2022-01-25 00:39:00+00:00,262.8981,2.06,12.57,47.84626,-54.09684
2022-01-25 00:49:00+00:00,264.2297,2.06,12.57,47.84626,-54.09684
2022-01-25 00:59:00+00:00,269.6881,2.07,12.57,47.84626,-54.09684
2022-01-25 01:09:00+00:00,268.6414,2.06,12.57,47.84626,-54.09684
2022-01-25 01:19:00+00:00,264.5948,2.04,12.57,47.84626,-54.09684
2022-01-25 01:29:00+00:00,266.7381,2.04,12.57,47.84626,-54.09684
2022-01-25 01:39:00+00:00,278.8979,2.09,12.57,47.84626,-54.09684
2022-01-25 01:49:00+00:00,285.8064,2.1,12.57,47.84626,-54.09684
2022-01-25 01:59:00+00:00,283.0081,2.07,12.57,47.84626,-54.09684
2022-01-25 02:09:00+00:00,289.0281,2.0,12.57,47.84626,-54.09684
2022-01-25 02:19:00+00:00,300.9697,2.0,12.57,47.84626,-54.09684
2022-01-25 02:29:00+00:00,303.9529,2.0,12.57,47.84626,-54.09684
2022-01-25 02:39:00+00:00,305.8347,2.0,12.57,47.84626,-54.09684
2022-01-25 02:49:00+00:00,317.8513,2.0,12.57,47.84626,-54.09684
2022-01-25 02:59:00+00:00,329.608,2.0,12.57,47.84626,-54.09684
2022-01-25 03:09:00+00:00,327.7846,2.0,12.57,47.84626,-54.09684
2022-01-25 03:19:00+00:00,328.8829,2.0,12.57,47.84626,-54.09684
2022-01-25 03:29:00+00:00,334.283,2.0,12.57,47.84626,-54.09684
2022-01-25 03:39:00+00:00,342.7313,2.0,12.57,47.84626,-54.09684
2022-01-25 03:49:00+00:00,339.5630000000001,1.9,12.57,47.84626,-54.09684
2022-01-25 03:59:00+00:00,340.8896,1.93,12.57,47.84626,-54.09684
2022-01-25 04:09:00+00:00,346.2563,1.96,12.57,47.84626,-54.09684
2022-01-25 04:19:00+00:00,345.61800000000005,2.0,12.57,47.84626,-54.09684
2022-01-25 04:29:00+00:00,348.2413,2.0,12.57,47.84626,-54.09684
2022-01-25 04:39:00+00:00,352.2913,2.0,12.57,47.84626,-54.09684
2022-01-25 04:49:00+00:00,348.5563,1.98,12.57,47.84626,-54.09684
2022-01-25 04:59:00+00:00,344.5413,1.96,12.57,47.84626,-54.09684
2022-01-25 05:09:00+00:00,343.9846,1.97,12.57,47.84626,-54.09684
2022-01-25 05:19:00+00:00,337.478,1.99,12.57,47.84626,-54.09684
2022-01-25 05:29:00+00:00,330.9597,2.0,12.57,47.84626,-54.09684
2022-01-25 05:39:00+00:00,328.038,2.0,12.57,47.84626,-54.09684
2022-01-25 05:49:00+00:00,325.2097,2.0,12.57,47.84626,-54.09684
2022-01-25 05:59:00+00:00,320.1647,2.0,12.57,47.84626,-54.09684
2022-01-25 06:09:00+00:00,320.6379,2.0,12.57,47.84626,-54.09684
2022-01-25 06:19:00+00:00,319.1413,2.0,12.57,47.84626,-54.09684
2022-01-25 06:29:00+00:00,309.6229,2.0,12.57,47.84626,-54.09684
2022-01-25 06:39:00+00:00,301.9347,2.0,12.57,47.84626,-54.09684
2022-01-25 06:49:00+00:00,297.723,2.0,12.57,47.84626,-54.09684
2022-01-25 06:59:00+00:00,289.4947,2.0,12.57,47.84626,-54.09684
2022-01-25 07:09:00+00:00,286.493,2.0,12.57,47.84626,-54.09684
2022-01-25 07:19:01+00:00,280.3347,2.0,12.57,47.84626,-54.09684
2022-01-25 07:29:01+00:00,270.1131,2.0,12.57,47.84626,-54.09684
2022-01-25 07:39:01+00:00,254.4864,2.0,12.57,47.84626,-54.09684
2022-01-25 07:49:01+00:00,252.5015,2.05,12.57,47.84626,-54.09684
2022-01-25 07:59:01+00:00,251.6147,2.09,12.57,47.84626,-54.09684
2022-01-25 08:09:01+00:00,245.2081,2.1,12.57,47.84626,-54.09684
2022-01-25 08:19:01+00:00,238.4864,2.1,12.57,47.84626,-54.09684
2022-01-25 08:29:01+00:00,241.0131,2.1,12.57,47.84626,-54.09684
2022-01-25 08:39:01+00:00,237.1581,2.1,12.57,47.84626,-54.09684
2022-01-25 08:49:01+00:00,223.273,2.07,12.57,47.84626,-54.09684
2022-01-25 08:59:01+00:00,220.9981,2.06,12.57,47.84626,-54.09684
2022-01-25 09:09:01+00:00,224.2231,2.07,12.57,47.84626,-54.09684
2022-01-25 09:19:00+00:00,216.6431,2.06,12.57,47.84626,-54.09684
2022-01-25 09:29:00+00:00,207.663,2.01,12.57,47.84626,-54.09684
2022-01-25 09:39:00+00:00,210.4081,2.02,12.57,47.84626,-54.09684
2022-01-25 09:49:00+00:00,207.7648,2.05,12.57,47.84626,-54.09684
2022-01-25 09:59:00+00:00,195.2515,2.0,12.57,47.84626,-54.09684
2022-01-25 10:09:00+00:00,197.4948,2.0,12.57,47.84626,-54.09684
2022-01-25 10:19:00+00:00,205.7131,2.0,12.57,47.84626,-54.09684
2022-01-25 10:29:00+00:00,202.0998,2.02,12.57,47.84626,-54.09684
2022-01-25 10:39:00+00:00,197.4464,2.0,12.57,47.84626,-54.09684
2022-01-25 10:49:00+00:00,192.0848,2.02,12.57,47.84626,-54.09684
2022-01-25 10:59:00+00:00,192.3281,2.03,12.57,47.84626,-54.09684
2022-01-25 11:09:00+00:00,197.4615,2.07,12.57,47.84626,-54.09684
2022-01-25 11:19:00+00:00,195.3748,2.09,12.57,47.84626,-54.09684
2022-01-25 11:29:00+00:00,193.1131,2.08,12.57,47.84626,-54.09684
2022-01-25 11:39:00+00:00,199.4115,2.06,12.57,47.84626,-54.09684
2022-01-25 11:49:00+00:00,199.3765,2.07,12.57,47.84626,-54.09684
2022-01-25 11:59:00+00:00,196.7315,2.07,12.57,47.84626,-54.09684
2022-01-25 12:09:00+00:00,208.1464,2.07,12.57,47.84626,-54.09684
2022-01-25 12:19:01+00:00,215.0031,2.08,12.57,47.84626,-54.09684
2022-01-25 12:29:01+00:00,206.0981,2.08,12.57,47.84626,-54.09684
2022-01-25 12:39:01+00:00,202.8682,2.09,12.57,47.84626,-54.09684
2022-01-25 12:49:01+00:00,211.6248,2.1,12.57,47.84626,-54.09684
2022-01-25 12:59:01+00:00,218.5714,2.1,12.57,47.84626,-54.09684
2022-01-25 13:09:01+00:00,226.2748,2.1,12.57,47.84626,-54.09684
2022-01-25 13:19:01+00:00,237.0381,2.1,12.65,47.84626,-54.09684
2022-01-25 13:29:01+00:00,243.8181,2.15,12.65,47.84626,-54.09684
2022-01-25 13:39:01+00:00,248.0081,2.18,12.65,47.84626,-54.09684
2022-01-25 13:49:01+00:00,248.2497,2.12,12.65,47.84626,-54.09684
2022-01-25 13:59:01+00:00,251.9164,2.2,12.65,47.84626,-54.09684
2022-01-25 14:09:01+00:00,255.2397,2.2,12.65,47.84626,-54.09684
2022-01-25 14:19:00+00:00,259.9881,2.15,13.76,47.84626,-54.09684
2022-01-25 14:29:00+00:00,258.1681,2.2,13.76,47.84626,-54.09684
2022-01-25 14:39:00+00:00,269.1497,2.18,13.76,47.84626,-54.09684
2022-01-25 14:49:00+00:00,291.7197,2.15,13.76,47.84626,-54.09684
2022-01-25 14:59:00+00:00,311.848,2.3,13.76,47.84626,-54.09684
2022-01-25 15:09:00+00:00,314.738,2.2,13.76,47.84626,-54.09684
2022-01-25 15:19:00+00:00,316.3914,2.12,14.56,47.84626,-54.09684
2022-01-25 15:29:00+00:00,315.3079,2.28,14.56,47.84626,-54.09684
2022-01-25 15:39:00+00:00,312.1164,2.2,14.56,47.84626,-54.09684
2022-01-25 15:49:00+00:00,314.4413,2.1,14.56,47.84626,-54.09684
2022-01-25 15:59:00+00:00,314.5696,2.06,14.56,47.84626,-54.09684
2022-01-25 16:09:00+00:00,314.748,2.0,14.56,47.84626,-54.09684
2022-01-25 16:19:00+00:00,307.1664,2.0,14.72,47.84626,-54.09684
2022-01-25 16:29:00+00:00,307.728,2.0,14.72,47.84626,-54.09684
2022-01-25 16:39:00+00:00,316.4397,2.05,14.72,47.84626,-54.09684
2022-01-25 16:49:00+00:00,321.193,2.09,14.72,47.84626,-54.09684
2022-01-25 16:59:00+00:00,317.4314,2.15,14.72,47.84626,-54.09684
2022-01-25 17:09:00+00:00,322.5079,2.2,14.72,47.84626,-54.09684
2022-01-25 17:19:00+00:00,329.8796,2.2,14.24,47.84626,-54.09684
2022-01-25 17:29:00+00:00,322.9413,2.1,14.24,47.84626,-54.09684
2022-01-25 17:39:00+00:00,314.6263,2.1,14.24,47.84626,-54.09684
2022-01-25 17:49:00+00:00,313.5697,2.12,14.24,47.84626,-54.09684
2022-01-25 17:59:00+00:00,315.828,2.15,14.24,47.84626,-54.09684
2022-01-25 18:09:00+00:00,314.0697,2.13,14.24,47.84626,-54.09684
2022-01-25 18:19:00+00:00,316.608,2.17,14.56,47.84626,-54.09684
2022-01-25 18:29:00+00:00,317.063,2.2,14.56,47.84626,-54.09684
2022-01-25 18:39:00+00:00,313.2313,2.2,14.56,47.84626,-54.09684
2022-01-25 18:49:00+00:00,313.4947,2.2,14.56,47.84626,-54.09684
2022-01-25 18:59:00+00:00,313.003,2.37,14.56,47.84626,-54.09684
2022-01-25 19:09:00+00:00,307.0413,2.4,14.56,47.84626,-54.09684
2022-01-25 19:19:00+00:00,298.6598,2.3,14.32,47.84626,-54.09684
2022-01-25 19:29:00+00:00,294.758,2.28,14.32,47.84626,-54.09684
2022-01-25 19:39:00+00:00,290.8364,2.25,14.32,47.84626,-54.09684
2022-01-25 19:49:00+00:00,281.5563,2.25,14.32,47.84626,-54.09684
2022-01-25 19:59:00+00:00,272.433,2.25,14.32,47.84626,-54.09684
2022-01-25 20:09:00+00:00,266.1881,2.23,14.32,47.84626,-54.09684
2022-01-25 20:19:01+00:00,259.9348,2.23,13.68,47.84626,-54.09684
2022-01-25 20:29:01+00:00,250.4031,2.25,13.68,47.84626,-54.09684
2022-01-25 20:39:01+00:00,244.7898,2.27,13.68,47.84626,-54.09684
2022-01-25 20:49:01+00:00,240.5781,2.28,13.68,47.84626,-54.09684
2022-01-25 20:59:01+00:00,233.4931,2.25,13.68,47.84626,-54.09684
2022-01-25 21:09:01+00:00,232.0431,2.24,13.68,47.84626,-54.09684
2022-01-25 21:19:00+00:00,235.8664,2.24,13.29,47.84626,-54.09684
2022-01-25 21:29:00+00:00,227.4147,2.23,13.29,47.84626,-54.09684
2022-01-25 21:39:00+00:00,217.3948,2.21,13.29,47.84626,-54.09684
2022-01-25 21:49:00+00:00,222.9631,2.23,13.29,47.84626,-54.09684
2022-01-25 21:59:00+00:00,224.7215,2.25,13.29,47.84626,-54.09684
2022-01-25 22:09:00+00:00,216.9398,2.28,13.29,47.84626,-54.09684
2022-01-25 22:19:00+00:00,214.3997,2.28,12.89,47.84626,-54.09684
2022-01-25 22:29:00+00:00,213.3181,2.28,12.89,47.84626,-54.09684
2022-01-25 22:39:00+00:00,208.9047,2.29,12.89,47.84626,-54.09684
2022-01-25 22:49:00+00:00,212.5398,2.28,12.89,47.84626,-54.09684
2022-01-25 22:59:00+00:00,223.8564,2.27,12.89,47.84626,-54.09684
2022-01-25 23:09:00+00:00,228.4615,2.27,12.89,47.84626,-54.09684
2022-01-25 23:19:01+00:00,225.0548,2.3,12.65,47.84626,-54.09684
2022-01-25 23:29:01+00:00,224.2081,2.3,12.65,47.84626,-54.09684
2022-01-25 23:39:01+00:00,233.6447,2.3,12.65,47.84626,-54.09684
2022-01-25 23:49:01+00:00,233.7914,2.3,12.65,47.84626,-54.09684
2022-01-25 23:59:01+00:00,226.4781,2.36,12.65,47.84626,-54.09684
